sat.trackr.live / text

‹ back to catalog

STARLINK-34232

NORAD 65019 · 2025-161E

PAYLOAD ACTIVE UNKNOWN

§ Identity

Operator
Country
US
Launch date
2025-07-30
Launch site
AFWTR
Launch vehicle
Mass (kg)
RCS (m²)

Purposes: comms

External: N2YO · Heavens-Above · Gunter

§ Orbital elements

Epoch: 2026-05-24T18:08:58.487136Z

Period
94.10 min
Inclination
53.1616°
Eccentricity
0.0001169
Mean motion
15.30210622 rev/d
Perigee alt
474.4 km
Apogee alt
476.0 km
Semi-major
6,853.3 km
B*
5.7123e-4
RAAN
301.0494°
Arg perigee
79.2276°
Mean anomaly
280.8856°
Rev number
4,708

§ Raw data

STARLINK-342321 65019U 25161E   26144.75623249  .00016602  00000+0  57123-3 0  99962 65019  53.1616 301.0494 0001169  79.2276 280.8856 15.30210622 47084

JSON: /api/v1/satellites/65019 · /tle

For live sub-satellite position, see the globe view (requires WebGL).

§ Visibility from observer

Set your observer location to see the next 7 days of passes ≥ 10°. The values pass through the URL so the page stays shareable.

No JS? Fill the form by hand. The geolocation button needs JavaScript.